sat.trackr.live / text

‹ back to catalog

ONEWEB-0263

NORAD 48981 · 2021-060Q

PAYLOAD ACTIVE UNKNOWN

§ Identity

Operator
Country
UK
Launch date
2021-07-01
Launch site
VOSTO
Launch vehicle
Mass (kg)
RCS (m²)

Purposes: comms

External: N2YO · Heavens-Above · Gunter

§ Orbital elements

Epoch: 2026-09-20T03:26:21.239232Z

Period
109.37 min
Inclination
87.9142°
Eccentricity
0.0001992
Mean motion
13.16592917 rev/d
Perigee alt
1,196.3 km
Apogee alt
1,199.3 km
Semi-major
7,575.9 km
B*
-6.6464e-5
RAAN
209.9288°
Arg perigee
67.3765°
Mean anomaly
292.7576°
Rev number
25,208

§ Raw data

ONEWEB-02631 48981U 21060Q   26263.14330138 -.00000013  00000+0 -66464-4 0  99962 48981  87.9142 209.9288 0001992  67.3765 292.7576 13.16592917252085

JSON: /api/v1/satellites/48981 · /tle

For live sub-satellite position, see the globe view (requires WebGL).

§ Visibility from observer

Set your observer location to see the next 7 days of passes ≥ 10°. The values pass through the URL so the page stays shareable.

No JS? Fill the form by hand. The geolocation button needs JavaScript.